"TOA5","MOW","CPU:UNC_MeetingWaters","DataHourly"
"TIMESTAMP","SondeTempC","SpCond","DOSat","DOmg","pH","Turb","BattVolt_Min"
"TS","","","","","","",""
"","Smp","Smp","Smp","Smp","Smp","Smp","Min"
"2003-03-01 00:00:00",8.35000038147,0.250999987125,102.900001526,12.0699996948,7.28000020981,137.100006104,12.4300003052
"2003-03-01 01:00:00",8.35999965668,0.256000012159,102.699996948,12.0500001907,7.28999996185,79.1999969482,12.4099998474
"2003-03-01 02:00:00",8.35000038147,0.259000003338,103.0,12.0799999237,7.30000019073,76.9000015259,12.3900003433
"2003-03-01 03:00:00",8.31000041962,0.263000011444,103.300003052,12.1400003433,7.32000017166,79.3000030518,12.3800001144
"2003-03-01 04:00:00",8.28999996185,0.264999985695,103.199996948,12.1300001144,7.32000017166,99.5999984741,12.3599996567
"2003-03-01 05:00:00",8.35000038147,0.272000014782,103.199996948,12.1000003815,7.32000017166,96.5999984741,12.3500003815
"2003-03-01 06:00:00",8.35999965668,0.270999997854,103.300003052,12.1199998856,7.32000017166,79.6999969482,12.3299999237
"2003-03-01 07:00:00",8.32999992371,0.268000006676,103.300003052,12.1199998856,7.32999992371,67.1999969482,12.3100004196
"2003-03-01 08:00:00",8.36999988556,0.266999989748,103.599998474,12.1599998474,7.32999992371,63.2999992371,12.2899999619
"2003-03-01 09:00:00",8.44999980927,0.268999993801,104.599998474,12.25,7.34000015259,55.2000007629,12.3299999237
"2003-03-01 10:00:00",8.47000026703,0.254999995232,106.0,12.4099998474,7.32999992371,52.5,12.5
"2003-03-01 11:00:00",8.85000038147,0.268000006676,106.900001526,12.3999996185,7.36999988556,56.2000007629,12.6400003433
"2003-03-01 12:00:00",9.07999992371,0.266999989748,107.199996948,12.3599996567,7.38000011444,53.9000015259,12.7600002289
"2003-03-01 13:00:00",9.43999958038,0.27500000596,107.5,12.2899999619,7.40999984741,111.0,12.8100004196
"2003-03-01 14:00:00",9.81999969482,0.282000005245,107.0,12.1199998856,7.40000009537,252.199996948,13.2600002289
"2003-03-01 15:00:00",10.029999733,0.280999988317,106.099998474,11.9600000381,7.40000009537,260.100006104,12.7700004578
"2003-03-01 16:00:00",10.1099996567,0.280000001192,104.400001526,11.7399997711,7.38000011444,231.699996948,12.6800003052
"2003-03-01 17:00:00",10.1499996185,0.279000014067,103.199996948,11.6000003815,7.38000011444,195.300003052,12.6000003815
"2003-03-01 18:00:00",10.0699996948,0.277999997139,102.0,11.4799995422,7.36999988556,160.5,12.5600004196
"2003-03-01 19:00:00",9.97999954224,0.284000009298,101.699996948,11.470000267,7.36000013351,116.0,12.529999733
"2003-03-01 20:00:00",10.0600004196,0.280000001192,101.199996948,11.3900003433,7.36000013351,115.900001526,12.5100002289
"2003-03-01 21:00:00",10.1000003815,0.379999995232,96.0,10.8000001907,7.23000001907,91.4000015259,12.4899997711
"2003-03-01 22:00:00",10.0399999619,0.397000014782,97.1999969482,10.9399995804,7.23000001907,131.800003052,12.470000267
"2003-03-01 23:00:00",10.1300001144,0.356999993324,97.6999969482,10.9799995422,7.25,233.199996948,12.4600000381
"2003-03-02 00:00:00",9.34000015259,0.0890000015497,108.199996948,12.3999996185,7.32000017166,544.0,12.4399995804
"2003-03-02 01:00:00",8.85999965668,0.0790000036359,106.800003052,12.3800001144,7.17999982834,339.700012207,12.4300003052
"2003-03-02 02:00:00",8.72000026703,0.107000000775,103.599998474,12.0600004196,7.09999990463,246.699996948,12.4099998474
"2003-03-02 03:00:00",8.89000034332,0.130999997258,103.300003052,11.970000267,7.07000017166,153.399993896,12.3900003433
"2003-03-02 04:00:00",9.34000015259,0.145999997854,102.5,11.7399997711,7.09999990463,150.800003052,12.3699998856
"2003-03-02 05:00:00",9.34000015259,0.152999997139,101.800003052,11.6700000763,7.11000013351,102.199996948,12.3500003815
"2003-03-02 06:00:00",9.46000003815,0.173999994993,102.0,11.6599998474,7.13999986649,92.3000030518,12.3400001526
"2003-03-02 07:00:00",9.57999992371,0.172999992967,102.400001526,11.6700000763,7.17000007629,91.5999984741,12.3199996948
"2003-03-02 08:00:00",9.60000038147,0.156000003219,102.199996948,11.6400003433,7.19000005722,103.400001526,12.3000001907
"2003-03-02 09:00:00",9.59000015259,0.158000007272,102.800003052,11.720000267,7.15999984741,80.9000015259,12.6499996185
"2003-03-02 10:00:00",9.80000019073,0.170000001788,104.099998474,11.8000001907,7.17000007629,64.4000015259,12.9899997711
"2003-03-02 11:00:00",10.1899995804,0.182999998331,105.199996948,11.8100004196,7.21000003815,60.5999984741,13.220000267
"2003-03-02 12:00:00",10.7700004578,0.196999996901,105.900001526,11.7299995422,7.23000001907,63.2000007629,13.4499998093
"2003-03-02 13:00:00",11.4200000763,0.206000000238,106.199996948,11.6000003815,7.26999998093,64.5,13.4399995804
"2003-03-02 14:00:00",12.3000001907,0.212999999523,106.099998474,11.3500003815,7.30000019073,46.9000015259,13.3800001144
"2003-03-02 15:00:00",12.7100000381,0.217999994755,105.099998474,11.1499996185,7.30999994278,53.0,13.3299999237
"2003-03-02 16:00:00",12.7899999619,0.223000004888,104.099998474,11.0100002289,7.30999994278,83.9000015259,12.8599996567
"2003-03-02 17:00:00",12.6199998856,0.229000002146,101.800003052,10.8100004196,7.30999994278,80.9000015259,12.6499996185
"2003-03-02 18:00:00",12.3500003815,0.232999995351,100.900001526,10.779999733,7.28999996185,58.5999984741,12.6199998856
"2003-03-02 19:00:00",11.9300003052,0.238999992609,100.400001526,10.8299999237,7.28000020981,40.7000007629,12.5900001526
"2003-03-02 20:00:00",11.5900001526,0.245000004768,100.199996948,10.8900003433,7.28000020981,35.9000015259,12.5699996948
"2003-03-02 21:00:00",11.3699998856,0.250999987125,100.199996948,10.9499998093,7.30000019073,36.7999992371,12.5500001907
"2003-03-02 22:00:00",11.0200004578,0.250999987125,100.400001526,11.0600004196,7.30000019073,31.2000007629,12.5399999619
"2003-03-02 23:00:00",10.6099996567,0.252000004053,100.5,11.1700000763,7.30000019073,29.3999996185,12.5200004578
"2003-03-03 00:00:00",10.25,0.252999991179,100.5,11.2700004578,7.30999994278,27.2999992371,12.5100002289
"2003-03-03 01:00:00",9.89000034332,0.254000008106,100.800003052,11.3900003433,7.32000017166,26.8999996185,12.4899997711
"2003-03-03 02:00:00",9.56999969482,0.256000012159,101.099998474,11.5200004578,7.32000017166,24.7999992371,12.470000267
"2003-03-03 03:00:00",9.25,0.25799998641,101.199996948,11.6199998856,7.32000017166,20.2000007629,12.4499998093
"2003-03-03 04:00:00",8.90999984741,0.259000003338,101.400001526,11.7399997711,7.32999992371,21.0,12.4200000763
"2003-03-03 05:00:00",8.57999992371,0.259999990463,101.800003052,11.8800001144,7.34000015259,22.2999992371,12.3999996185
"2003-03-03 06:00:00",8.27000045776,0.261000007391,102.0,11.9899997711,7.34000015259,19.2000007629,12.3800001144
"2003-03-03 07:00:00",7.98000001907,0.261999994516,102.5,12.1400003433,7.34999990463,18.2000007629,12.3599996567
"2003-03-03 08:00:00",7.80000019073,0.263000011444,103.599998474,12.3199996948,7.36999988556,35.7999992371,12.5699996948
"2003-03-03 09:00:00",7.92000007629,0.264999985695,105.099998474,12.470000267,7.38999986649,17.5,12.7700004578
"2003-03-03 10:00:00",8.46000003815,0.266999989748,107.5,12.5900001526,7.40999984741,20.2000007629,13.6199998856
"2003-03-03 11:00:00",9.38000011444,0.273000001907,109.099998474,12.4899997711,7.44999980927,27.3999996185,13.2100000381
"2003-03-03 12:00:00",10.3500003815,0.270999997854,108.900001526,12.1800003052,7.46999979019,17.7000007629,13.5399999619
"2003-03-03 13:00:00",11.2299995422,0.273000001907,107.599998474,11.7899999619,7.44999980927,78.0999984741,13.5100002289
"2003-03-03 14:00:00",11.7700004578,0.268999993801,107.699996948,11.6599998474,7.44999980927,98.1999969482,13.4799995422
"2003-03-03 15:00:00",12.0100002289,0.270000010729,106.5,11.470000267,7.44000005722,109.900001526,13.4399995804
"2003-03-03 16:00:00",11.8900003433,0.277999997139,104.0,11.2299995422,7.44000005722,135.300003052,12.9899997711
"2003-03-03 17:00:00",11.6199998856,0.282000005245,102.099998474,11.0900001526,7.42000007629,103.300003052,12.6999998093
"2003-03-03 18:00:00",11.3199996948,0.287000000477,100.599998474,11.0100002289,7.40999984741,110.900001526,12.6199998856
"2003-03-03 19:00:00",10.8500003815,0.287000000477,99.0999984741,10.9600000381,7.38999986649,126.800003052,12.5799999237
"2003-03-03 20:00:00",10.3100004196,0.282999992371,98.6999969482,11.0600004196,7.36999988556,110.300003052,12.5399999619
"2003-03-03 21:00:00",9.82999992371,0.279000014067,99.5,11.2700004578,7.34999990463,97.5,12.5200004578
"2003-03-03 22:00:00",9.36999988556,0.277000010014,100.0,11.4499998093,7.34000015259,78.5999984741,12.4899997711
"2003-03-03 23:00:00",8.93000030518,0.277999997139,100.5,11.6300001144,7.34999990463,68.5999984741,12.470000267
"2003-03-04 00:00:00",8.59000015259,0.280999988317,100.699996948,11.7399997711,7.34999990463,69.3000030518,12.4499998093
"2003-03-04 01:00:00",8.31000041962,0.284000009298,101.0,11.8699998856,7.36000013351,64.8000030518,12.4300003052
"2003-03-04 02:00:00",8.10000038147,0.284999996424,100.400001526,11.8599996567,7.36999988556,56.7999992371,12.4200000763
"2003-03-04 03:00:00",7.92999982834,0.284000009298,99.5,11.8000001907,7.36000013351,45.5999984741,12.3999996185
"2003-03-04 04:00:00",7.76000022888,0.282999992371,99.3000030518,11.8199996948,7.36000013351,36.0,12.3900003433
"2003-03-04 05:00:00",7.57000017166,0.284000009298,99.0999984741,11.8599996567,7.34000015259,33.0,12.3699998856
"2003-03-04 06:00:00",7.34999990463,0.284999996424,98.6999969482,11.8699998856,7.34000015259,28.6000003815,12.3599996567
"2003-03-04 07:00:00",7.17000007629,0.286000013351,98.0,11.8400001526,7.32999992371,26.7999992371,12.3400001526
"2003-03-04 08:00:00",7.05000019073,0.287999987602,98.5999984741,11.9499998093,7.32999992371,34.2000007629,12.6800003052
"2003-03-04 09:00:00",7.21999979019,0.287999987602,101.5,12.2399997711,7.32999992371,24.7000007629,12.8400001526
"2003-03-04 10:00:00",7.78000020981,0.28900000453,105.099998474,12.5,7.36000013351,23.2000007629,13.6700000763
"2003-03-04 11:00:00",8.73999977112,0.289999991655,107.300003052,12.4799995422,7.40000009537,20.5,13.6000003815
"2003-03-04 12:00:00",9.85000038147,0.294999986887,106.800003052,12.0900001526,7.40000009537,45.9000015259,13.529999733
"2003-03-04 13:00:00",10.6400003433,0.303000003099,102.099998474,11.3400001526,7.36000013351,20.0,13.4899997711
"2003-03-04 14:00:00",11.3999996185,0.310000002384,99.6999969482,10.8800001144,7.32999992371,21.7000007629,13.4399995804
"2003-03-04 15:00:00",11.9600000381,0.31400001049,96.1999969482,10.3699998856,7.30999994278,36.9000015259,13.3500003815
"2003-03-04 16:00:00",12.0399999619,0.307999998331,96.8000030518,10.4099998474,7.30000019073,95.3000030518,13.3100004196
"2003-03-04 17:00:00",12.0100002289,0.300999999046,97.0,10.4499998093,7.28999996185,132.199996948,12.7700004578
"2003-03-04 18:00:00",11.9399995804,0.293999999762,97.3000030518,10.4899997711,7.28999996185,176.899993896,12.6800003052
"2003-03-04 19:00:00",11.6800003052,0.291999995708,95.6999969482,10.3900003433,7.28999996185,203.199996948,12.6300001144
"2003-03-04 20:00:00",11.4600000381,0.291000008583,95.5,10.4099998474,7.28999996185,189.600006104,12.6000003815
"2003-03-04 21:00:00",11.3299999237,0.289999991655,95.5999984741,10.4499998093,7.28999996185,172.600006104,12.5799999237
"2003-03-04 22:00:00",11.2399997711,0.289999991655,95.6999969482,10.4799995422,7.28000020981,169.800003052,12.5699996948
"2003-03-04 23:00:00",11.1499996185,0.291000008583,96.1999969482,10.5600004196,7.26999998093,172.0,12.5500001907
"2003-03-05 00:00:00",11.0600004196,0.291000008583,96.6999969482,10.6400003433,7.26000022888,155.800003052,12.5399999619
"2003-03-05 01:00:00",10.9399995804,0.291999995708,96.1999969482,10.6199998856,7.26000022888,135.0,12.529999733
"2003-03-05 02:00:00",11.0799999237,0.291000008583,96.5999984741,10.6199998856,7.26000022888,149.100006104,12.5100002289
"2003-03-05 03:00:00",11.8100004196,0.230000004172,90.6999969482,9.81000041962,7.23999977112,397.399993896,12.4899997711
"2003-03-05 04:00:00",11.779999733,0.168999999762,90.5,9.80000019073,7.17999982834,278.899993896,12.4799995422
"2003-03-05 05:00:00",11.7299995422,0.140000000596,94.3000030518,10.220000267,7.07999992371,205.199996948,12.4600000381
"2003-03-05 06:00:00",11.6400003433,0.123999997973,97.4000015259,10.5799999237,7.05999994278,131.199996948,12.4499998093
"2003-03-05 07:00:00",11.6499996185,0.116999998689,97.5999984741,10.6000003815,7.07000017166,110.400001526,12.4399995804
"2003-03-05 08:00:00",11.5500001907,0.122000001371,98.4000015259,10.7100000381,7.03999996185,96.6999969482,12.4499998093
"2003-03-05 09:00:00",11.5699996948,0.131999999285,98.5,10.7100000381,7.05000019073,88.9000015259,12.5900001526
"2003-03-05 10:00:00",11.75,0.143000006676,99.6999969482,10.8000001907,7.05999994278,103.599998474,13.4200000763
"2003-03-05 11:00:00",12.2299995422,0.155000001192,101.5,10.8699998856,7.09000015259,143.5,13.0100002289
"2003-03-05 12:00:00",12.779999733,0.170000001788,102.800003052,10.8800001144,7.11999988556,138.699996948,13.3999996185
"2003-03-05 13:00:00",13.6400003433,0.187999993563,104.800003052,10.8800001144,7.15999984741,99.3000030518,13.3599996567
"2003-03-05 14:00:00",14.2899999619,0.207000002265,104.800003052,10.7299995422,7.21000003815,71.3000030518,13.3100004196
"2003-03-05 15:00:00",14.6300001144,0.22499999404,103.900001526,10.5600004196,7.23999977112,60.7000007629,13.279999733
"2003-03-05 16:00:00",14.779999733,0.243000000715,102.099998474,10.3400001526,7.25,52.9000015259,12.9600000381
"2003-03-05 17:00:00",14.75,0.256000012159,100.099998474,10.1499996185,7.26000022888,42.2999992371,12.7299995422
"2003-03-05 18:00:00",14.5699996948,0.264999985695,96.9000015259,9.85000038147,7.28000020981,48.7999992371,12.6599998474
"2003-03-05 19:00:00",14.25,0.270999997854,93.5999984741,9.59000015259,7.25,65.8000030518,12.6300001144
"2003-03-05 20:00:00",13.970000267,0.27500000596,91.4000015259,9.42000007629,7.21999979019,56.0999984741,12.6099996567
"2003-03-05 21:00:00",13.75,0.280999988317,90.4000015259,9.35999965668,7.19999980927,53.2999992371,12.5900001526
"2003-03-05 22:00:00",13.5200004578,0.286000013351,90.9000015259,9.46000003815,7.17999982834,56.2000007629,12.5699996948
"2003-03-05 23:00:00",13.3199996948,0.28900000453,92.3000030518,9.64999961853,7.19000005722,60.0,12.5500001907
"2003-03-06 00:00:00",13.1499996185,0.289999991655,92.3000030518,9.68999958038,7.19000005722,57.2000007629,12.5399999619
"2003-03-06 01:00:00",12.9799995422,0.291000008583,92.5,9.73999977112,7.19000005722,47.4000015259,12.529999733
"2003-03-06 02:00:00",12.8299999237,0.291000008583,92.5999984741,9.78999996185,7.17999982834,42.5999984741,12.5100002289
"2003-03-06 03:00:00",12.7299995422,0.291000008583,93.6999969482,9.93000030518,7.19000005722,49.2000007629,12.4899997711
"2003-03-06 04:00:00",12.6199998856,0.287999987602,92.0999984741,9.77999973297,7.19999980927,68.1999969482,12.4799995422
"2003-03-06 05:00:00",13.0100002289,0.16400000453,94.0999984741,9.90999984741,7.28999996185,257.100006104,12.470000267
"2003-03-06 06:00:00",13.2100000381,0.0570000000298,107.699996948,11.3000001907,7.26000022888,600.400024414,12.4600000381
"2003-03-06 07:00:00",12.5900001526,0.082999996841,104.800003052,11.1400003433,7.09000015259,462.899993896,12.4499998093
"2003-03-06 08:00:00",12.5500001907,0.108000002801,103.900001526,11.0600004196,7.0,297.899993896,12.4399995804
"2003-03-06 09:00:00",12.8000001907,0.112999998033,102.300003052,10.8199996948,7.05999994278,230.100006104,12.4399995804
"2003-03-06 10:00:00",13.029999733,0.125,100.300003052,10.5600004196,7.05000019073,250.399993896,12.5900001526
"2003-03-06 11:00:00",13.0699996948,0.149000003934,100.400001526,10.5600004196,7.03000020981,345.299987793,12.5600004196
"2003-03-06 12:00:00",13.2399997711,0.171000003815,101.099998474,10.5900001526,7.09000015259,269.600006104,12.9099998474
"2003-03-06 13:00:00",13.5,0.180999994278,102.400001526,10.6599998474,7.13999986649,186.699996948,13.0500001907
"2003-03-06 14:00:00",13.75,0.189999997616,102.800003052,10.6400003433,7.17000007629,181.300003052,13.3100004196
"2003-03-06 15:00:00",13.8900003433,0.197999998927,102.199996948,10.5500001907,7.19000005722,164.300003052,12.8599996567
"2003-03-06 16:00:00",13.9799995422,0.209000006318,100.800003052,10.3800001144,7.21000003815,172.5,12.75
"2003-03-06 17:00:00",13.970000267,0.222000002861,99.1999969482,10.220000267,7.19999980927,273.899993896,12.6899995804
"2003-03-06 18:00:00",13.8500003815,0.254999995232,98.6999969482,10.1899995804,7.21000003815,272.200012207,12.6300001144
"2003-03-06 19:00:00",13.5600004196,0.291999995708,98.1999969482,10.2100000381,7.19999980927,143.699996948,12.6099996567
"2003-03-06 20:00:00",13.3199996948,0.259000003338,98.5,10.3000001907,7.21000003815,109.699996948,12.5900001526
"2003-03-06 21:00:00",13.0100002289,0.246000006795,98.8000030518,10.3999996185,7.21999979019,87.0999984741,12.5699996948
"2003-03-06 22:00:00",12.7100000381,0.241999998689,99.1999969482,10.5100002289,7.23000001907,83.6999969482,12.5500001907
"2003-03-06 23:00:00",12.3800001144,0.240999996662,99.3000030518,10.6000003815,7.25,79.3000030518,12.529999733
"2003-03-07 00:00:00",12.0600004196,0.240999996662,99.8000030518,10.7399997711,7.23999977112,58.9000015259,12.5
"2003-03-07 01:00:00",11.6700000763,0.241999998689,99.9000015259,10.8400001526,7.26000022888,43.2000007629,12.470000267
"2003-03-07 02:00:00",11.2600002289,0.244000002742,100.199996948,10.9799995422,7.25,50.7000007629,12.4300003052
"2003-03-07 03:00:00",10.8900003433,0.245000004768,100.400001526,11.0900001526,7.26999998093,35.2999992371,12.4099998474
"2003-03-07 04:00:00",10.5699996948,0.246000006795,100.400001526,11.1700000763,7.26999998093,32.4000015259,12.3800001144
"2003-03-07 05:00:00",10.2700004578,0.24699999392,100.800003052,11.2899999619,7.26000022888,33.7000007629,12.3599996567
"2003-03-07 06:00:00",9.96000003815,0.248999997973,101.300003052,11.4399995804,7.26999998093,29.6000003815,12.3500003815
"2003-03-07 07:00:00",9.67000007629,0.250999987125,101.699996948,11.5600004196,7.28000020981,25.7999992371,12.3400001526
"2003-03-07 08:00:00",9.43000030518,0.254000008106,102.400001526,11.7100000381,7.28999996185,28.3999996185,12.3299999237
"2003-03-07 09:00:00",9.28999996185,0.25799998641,103.199996948,11.8400001526,7.30999994278,25.0,12.3199996948
"2003-03-07 10:00:00",9.21000003815,0.259000003338,105.300003052,12.1000003815,7.32000017166,24.7000007629,12.4399995804
"2003-03-07 11:00:00",9.14999961853,0.259999990463,106.0,12.2100000381,7.34999990463,23.5,12.3900003433
"2003-03-07 12:00:00",9.09000015259,0.259999990463,106.699996948,12.3000001907,7.36999988556,25.5,12.6700000763
"2003-03-07 13:00:00",9.25,0.263000011444,108.599998474,12.470000267,7.38000011444,47.9000015259,12.970000267
"2003-03-07 14:00:00",9.36999988556,0.356999993324,107.199996948,12.2700004578,7.36999988556,157.199996948,12.8400001526
"2003-03-07 15:00:00",9.52000045776,0.386999994516,106.699996948,12.1599998474,7.38999986649,180.899993896,12.8999996185
"2003-03-07 16:00:00",9.59000015259,0.349000006914,106.300003052,12.1099996567,7.40000009537,150.800003052,12.7600002289
"2003-03-07 17:00:00",9.52000045776,0.31400001049,105.199996948,12.0100002289,7.38999986649,146.800003052,12.6899995804
"2003-03-07 18:00:00",9.39999961853,0.287000000477,103.5,11.8400001526,7.38000011444,201.899993896,12.6000003815
"2003-03-07 19:00:00",9.26000022888,0.273000001907,101.699996948,11.6700000763,7.36000013351,236.899993896,12.5600004196
"2003-03-07 20:00:00",8.97000026703,0.268999993801,101.599998474,11.7399997711,7.34000015259,298.200012207,12.529999733
"2003-03-07 21:00:00",8.65999984741,0.273000001907,101.400001526,11.8000001907,7.32000017166,278.600006104,12.5
"2003-03-07 22:00:00",8.39999961853,0.280999988317,101.599998474,11.9099998474,7.30999994278,345.100006104,12.470000267
"2003-03-07 23:00:00",8.18000030518,0.286000013351,101.699996948,11.9799995422,7.32999992371,302.5,12.4399995804
"2003-03-08 00:00:00",7.94999980927,0.287999987602,102.0,12.0799999237,7.32999992371,196.600006104,12.3900003433
"2003-03-08 01:00:00",7.69999980927,0.287999987602,102.199996948,12.1899995804,7.32000017166,141.199996948,12.3299999237
"2003-03-08 02:00:00",7.46999979019,0.286000013351,102.699996948,12.3100004196,7.32000017166,100.599998474,12.2899999619
"2003-03-08 03:00:00",7.28000020981,0.284000009298,102.800003052,12.3800001144,7.32000017166,70.9000015259,12.2700004578
"2003-03-08 04:00:00",7.11999988556,0.282000005245,102.900001526,12.4399995804,7.32000017166,57.5,12.2600002289
"2003-03-08 05:00:00",6.96999979019,0.280999988317,102.900001526,12.4899997711,7.30999994278,62.2999992371,12.25
"2003-03-08 06:00:00",6.80000019073,0.280000001192,102.900001526,12.5399999619,7.30999994278,63.7999992371,12.25
"2003-03-08 07:00:00",6.65000009537,0.280000001192,103.0,12.6000003815,7.30000019073,72.0,12.2299995422
"2003-03-08 08:00:00",6.61000013351,0.279000014067,104.099998474,12.75,7.30000019073,87.3000030518,12.5100002289
"2003-03-08 09:00:00",6.88999986649,0.279000014067,105.900001526,12.8900003433,7.32000017166,82.5999984741,12.8699998856
"2003-03-08 10:00:00",7.67999982834,0.277999997139,108.300003052,12.9200000763,7.32000017166,71.4000015259,13.6199998856
"2003-03-08 11:00:00",8.82999992371,0.277999997139,110.300003052,12.7899999619,7.30999994278,70.0,13.5100002289
"2003-03-08 12:00:00",10.2299995422,0.279000014067,112.199996948,12.5900001526,7.28999996185,69.4000015259,13.4399995804
"2003-03-08 13:00:00",11.5799999237,0.280000001192,113.5,12.3400001526,7.26999998093,63.2000007629,13.3699998856
"2003-03-08 14:00:00",12.4499998093,0.280000001192,113.400001526,12.0900001526,7.23999977112,63.9000015259,13.3000001907
"2003-03-08 15:00:00",12.8599996567,0.279000014067,111.400001526,11.7700004578,7.23000001907,57.9000015259,13.25
"2003-03-08 16:00:00",12.8500003815,0.277999997139,108.900001526,11.5,7.21999979019,59.2999992371,13.2299995422
"2003-03-08 17:00:00",12.75,0.277999997139,105.199996948,11.1400003433,7.19999980927,52.5999984741,12.7600002289
"2003-03-08 18:00:00",12.5699996948,0.277999997139,101.900001526,10.8299999237,7.17999982834,46.5,12.6899995804
"2003-03-08 19:00:00",12.3500003815,0.280000001192,98.6999969482,10.5500001907,7.15999984741,37.5,12.6499996185
"2003-03-08 20:00:00",12.0900001526,0.280999988317,97.5,10.470000267,7.15999984741,31.1000003815,12.6099996567
"2003-03-08 21:00:00",11.8199996948,0.282000005245,96.9000015259,10.4799995422,7.15000009537,32.0,12.5900001526
"2003-03-08 22:00:00",11.5500001907,0.282000005245,97.3000030518,10.5900001526,7.15999984741,28.3999996185,12.5699996948
"2003-03-08 23:00:00",11.2700004578,0.282000005245,98.0,10.7299995422,7.15000009537,27.5,12.5500001907
"2003-03-09 00:00:00",10.9600000381,0.282999992371,97.3000030518,10.7299995422,7.15999984741,24.6000003815,12.529999733
"2003-03-09 01:00:00",10.75,0.282999992371,97.0,10.75,7.17000007629,23.8999996185,12.5200004578
"2003-03-09 02:00:00",10.6199998856,0.284000009298,96.5999984741,10.7299995422,7.17000007629,20.5,12.5100002289
"2003-03-09 03:00:00",10.5600004196,0.284999996424,97.9000015259,10.8999996185,7.17000007629,18.3999996185,12.5
"2003-03-09 04:00:00",10.4600000381,0.284999996424,97.5,10.8800001144,7.17000007629,19.6000003815,12.4899997711
"2003-03-09 05:00:00",10.3000001907,0.284000009298,98.4000015259,11.0200004578,7.17000007629,18.5,12.470000267
"2003-03-09 06:00:00",10.1300001144,0.284000009298,98.0999984741,11.029999733,7.17000007629,18.7999992371,12.4499998093
"2003-03-09 07:00:00",10.0,0.284000009298,98.1999969482,11.0799999237,7.17999982834,19.5,12.4300003052
"2003-03-09 08:00:00",10.0200004578,0.282999992371,99.3000030518,11.1899995804,7.17999982834,20.3999996185,12.7100000381
"2003-03-09 09:00:00",10.3699998856,0.282999992371,103.300003052,11.5500001907,7.19000005722,17.2999992371,12.8900003433